Погода в Болехове

Украина / Ивано-Франковская область     49°04′03″N   23°50′57″E
темп.,
°C
ветер,
м/с
пор.,
м/с
влажн.,
%
обл.,
%
осадки,
мм/ч
давл.,
гПа
погр.,
м
19 апреля, пн
пн1900:00+4ююв118898 0.0 101810
03:00+3сз0091100 0.0 101810
06:00+2зюз1193100 0.0 101710
09:00+6ссв1180100 0.0 1017248
12:00+8св2369100 0.0 1015961
15:00+8св3373100 0.3 1015934
18:00+8ссв2379100 0.6 1014699
21:00+6ссв1194100 1.6 101444
20 апреля, вт
вт2000:00+5с1399100 1.6 1014238
03:00+5с12100100 2.4 1013151
06:00+5св2498100 1.3 1012367
09:00+4ссв2499100 7.0 1013613
12:00+5всв1387100 2.9 1013533
15:00+8св127388 3.8 1012882
18:00+8ссз237298 1.1 1012805
21:00+5зюз1190100 2.6 101318
21 апреля, ср
ср2100:00+4юз229165 0.9 101325
03:00+3юз329218 0.9 101439
06:00+3юз3492100 0.1 101474
09:00+7зюз368134 0.1 1014330
12:00+10зюз456599 0.9 10131459
15:00+10зюз686297 1.8 10131408
18:00+11юз586224 0.0 10131420
21:00+6юз498349 0.0 1014317
22 апреля, чт
чт2200:00+7юз51381100 0.1 1014576
03:00+7юз51382100 0.3 1014602
06:00+7юз4118399 0.0 1014726
09:00+7юз298699 0.9 1015782
12:00+10юз497499 0.4 1015867
15:00+12юз61062100 0.5 10141443
18:00+11ююз51171100 0.3 10131133
21:00+6ссз3694100 0.8 1015272
23 апреля, пт
пт2300:00+4св1298100 3.7 1016364
03:00+1сз12100100 13.9 101794
06:00+1з24100100 2.9 1018183
09:00+3зюз2492100 3.3 1019263
12:00+6зсз567375 0.1 10191337
15:00+6сз566736 0.1 10191273
18:00+6зсз476722 0.0 10201243
21:00+2юз32865 0.0 102127